Erie, PA

11:43 AM EDT on April 21, 2018 (GMT -0400)
Erie International

Weather History for KERI - December, 2013

Change the Weather History Date:

Tuesday, December 10, 2013

  Actual Average Record
Temperature  
Mean Temperature 26 °F 34 °F  
Max Temperature 28 °F 40 °F 65 °F (1971)
Min Temperature 23 °F 28 °F -4 °F (1876)
Degree Days  
Heating Degree Days 39 31  
Month to date heating degree days 304 294  
Since 1 July heating degree days 1503 1450  
Cooling Degree Days 0 0  
Month to date cooling degree days 0 0  
Year to date cooling degree days 706 638  
Moisture  
Dew Point 15 °F    
Average Humidity 59    
Maximum Humidity 81    
Minimum Humidity 37    
Precipitation  
Precipitation 0.06 in 0.13 in 0.88 in (1997)
Month to date precipitation 0.37 1.25  
Year to date precipitation 48.87 39.67  
Snow  
Snow 1.10 in 0.90 in - ()
Month to date snowfall 3.4 7.0  
Since 1 July snowfall 19.0 15.7  
Snow Depth T in    
Sea Level Pressure  
Sea Level Pressure 30.04 in    
Wind  
Wind Speed 15 mph (SW)    
Max Wind Speed 29 mph    
Max Gust Speed 37 mph    
Visibility 5 miles    
Events Snow    
T = Trace of Precipitation, MM = Missing Value Source: NWS Daily Summary

Daily Weather History Graph

Daily Weather History Graph

Search for Another Location

Airport or City:

Astronomy

Dec. 10, 2013 Rise Set
Actual Time 7:38 AM EST 4:48 PM EST
Civil Twilight 7:06 AM EST 5:20 PM EST
Nautical Twilight 6:31 AM EST 5:55 PM EST
Astronomical Twilight 5:57 AM EST 6:29 PM EST
Moon 12:54 PM EST (12/10) 12:48 AM EST (12/10)
Length of Visible Light 10h 13m
Length of Day
9h 10m
First Quarter, 61% of the Moon is Illuminated
Dec 10
First Quarter
Dec 17
Full
Dec 25
Last Quarter
Jan 1
New
Jan 7
First Quarter

Hourly Weather History & Observations

Time (EST) Temp. Windchill Dew Point Humidity Pressure Visibility Wind Dir Wind Speed Gust Speed Precip Events Conditions
12:51 AM 28.0 °F 17.5 °F 16.0 °F 61% 30.07 in 10.0 mi SW 12.7 mph 23.0 mph N/A   Overcast
1:51 AM 27.0 °F 16.1 °F 16.0 °F 63% 30.07 in 10.0 mi SW 12.7 mph - N/A   Overcast
2:51 AM 27.0 °F 15.6 °F 16.0 °F 63% 30.11 in 10.0 mi SW 13.8 mph - N/A   Overcast
3:17 AM 26.6 °F 14.7 °F 17.6 °F 69% 30.09 in 10.0 mi SW 15.0 mph 21.9 mph N/A   Overcast
3:51 AM 27.0 °F 16.1 °F 17.1 °F 66% 30.10 in 7.0 mi SSW 12.7 mph - 0.00 in Snow Light Snow
4:30 AM 26.6 °F 16.2 °F 15.8 °F 64% 30.05 in 4.0 mi SW 11.5 mph - 0.00 in Snow Light Snow
4:42 AM 24.8 °F 14.6 °F 17.6 °F 74% 30.04 in 2.0 mi SW 10.4 mph 18.4 mph 0.00 in Snow Light Snow
4:51 AM 25.0 °F 12.6 °F 18.0 °F 75% 30.06 in 1.8 mi SW 15.0 mph - 0.00 in Snow Light Snow
5:06 AM 24.8 °F 14.0 °F 17.6 °F 74% 30.04 in 3.0 mi SW 11.5 mph - 0.00 in Snow Light Snow
5:51 AM 25.0 °F 14.2 °F 17.1 °F 72% 30.06 in 6.0 mi SW 11.5 mph - 0.00 in Snow Light Snow
6:51 AM 24.1 °F 13.1 °F 16.0 °F 71% 30.06 in 5.0 mi SW 11.5 mph 18.4 mph 0.00 in Snow Light Snow
7:51 AM 24.1 °F 12.0 °F 16.0 °F 71% 30.05 in 5.0 mi SW 13.8 mph - 0.00 in Snow Light Snow
8:20 AM 24.8 °F 14.0 °F 17.6 °F 74% 30.02 in 1.8 mi SW 11.5 mph - 0.00 in Snow Light Snow
8:51 AM 23.0 °F 11.1 °F 17.1 °F 78% 30.05 in 1.2 mi SW 12.7 mph 17.3 mph 0.00 in Snow Light Snow
9:14 AM 23.0 °F 12.4 °F 17.6 °F 80% 30.02 in 0.8 mi SW 10.4 mph - 0.00 in Snow Light Snow
9:23 AM 23.0 °F 13.1 °F 17.6 °F 80% 30.02 in 1.2 mi SW 9.2 mph - 0.00 in Snow Light Snow
9:51 AM 23.0 °F 11.7 °F 17.1 °F 78% 30.06 in 1.0 mi SW 11.5 mph 19.6 mph 0.00 in Snow Light Snow
9:53 AM 23.0 °F 13.1 °F 17.6 °F 80% 30.03 in 0.5 mi SW 9.2 mph 19.6 mph 0.00 in Snow Snow
10:00 AM 23.0 °F 9.6 °F 17.6 °F 80% 30.02 in 0.8 mi WSW 16.1 mph 20.7 mph 0.01 in Snow Light Snow
10:11 AM 23.0 °F 12.4 °F 17.6 °F 80% 30.02 in 0.8 mi SW 10.4 mph - 0.01 in Snow Light Snow
10:30 AM 23.0 °F 13.9 °F 17.6 °F 80% 30.02 in 0.8 mi SW 8.1 mph 17.3 mph 0.01 in Snow Light Snow
10:51 AM 23.0 °F 10.6 °F 17.1 °F 78% 30.04 in 0.8 mi SW 13.8 mph - 0.01 in Snow Light Snow
10:53 AM 23.0 °F 10.1 °F 15.8 °F 74% 30.01 in 2.0 mi WSW 15.0 mph - 0.00 in Snow Light Snow
11:03 AM 24.8 °F 13.4 °F 15.8 °F 69% 30.01 in 5.0 mi WSW 12.7 mph 21.9 mph 0.00 in Snow Light Snow
11:38 AM 24.8 °F 11.9 °F 15.8 °F 69% 30.00 in 2.5 mi WSW 16.1 mph 27.6 mph 0.00 in Snow Light Snow
11:48 AM 24.8 °F 14.0 °F 17.6 °F 74% 30.00 in 1.5 mi WSW 11.5 mph 23.0 mph 0.00 in Snow Light Snow
11:51 AM 24.1 °F 11.0 °F 16.0 °F 71% 30.03 in 2.0 mi SW 16.1 mph 23.0 mph 0.00 in Snow Light Snow
11:55 AM 24.8 °F 12.4 °F 15.8 °F 69% 30.00 in 3.0 mi WSW 15.0 mph 23.0 mph 0.00 in Snow Light Snow
12:51 PM 25.0 °F 11.7 °F 10.0 °F 53% 30.02 in 10.0 mi WSW 17.3 mph 24.2 mph 0.00 in   Mostly Cloudy
1:51 PM 26.1 °F 13.6 °F 5.0 °F 41% 30.00 in 10.0 mi SW 16.1 mph 25.3 mph N/A   Overcast
2:51 PM 27.0 °F 16.1 °F 3.0 °F 36% 29.97 in 10.0 mi SSW 12.7 mph - N/A   Overcast
3:51 PM 27.0 °F 16.1 °F 5.0 °F 39% 29.96 in 10.0 mi SW 12.7 mph - N/A   Overcast
4:51 PM 27.0 °F 16.7 °F 6.1 °F 41% 29.99 in 10.0 mi WSW 11.5 mph 23.0 mph N/A   Overcast
5:51 PM 27.0 °F 13.9 °F 9.0 °F 47% 30.02 in 9.0 mi WSW 18.4 mph 28.8 mph 0.00 in   Overcast
6:09 PM 24.8 °F 10.3 °F 14.0 °F 64% 30.01 in 1.8 mi WSW 20.7 mph 35.7 mph 0.00 in Snow Light Snow
6:22 PM 24.8 °F 13.4 °F 17.6 °F 74% 30.02 in 0.8 mi WSW 12.7 mph 34.5 mph 0.00 in Snow Light Snow
6:31 PM 24.8 °F 12.4 °F 15.8 °F 69% 30.02 in 1.5 mi WSW 15.0 mph 25.3 mph 0.00 in Snow Light Snow
6:35 PM 24.8 °F 11.9 °F 15.8 °F 69% 30.03 in 3.0 mi SW 16.1 mph 24.2 mph 0.00 in Snow Light Snow
6:51 PM 25.0 °F 11.7 °F 15.1 °F 66% 30.06 in 7.0 mi SW 17.3 mph 26.5 mph 0.00 in Snow Light Snow
7:17 PM 26.6 °F 12.7 °F 17.6 °F 69% 30.04 in 1.5 mi West 20.7 mph 29.9 mph 0.00 in Snow Light Snow
7:24 PM 26.6 °F 13.4 °F 19.4 °F 74% 30.04 in 0.8 mi WSW 18.4 mph 31.1 mph 0.00 in Snow Light Snow
7:38 PM 26.6 °F 11.4 °F 17.6 °F 69% 30.04 in 2.0 mi West 25.3 mph 36.8 mph 0.00 in Snow Light Snow
7:51 PM 28.0 °F 14.6 °F 12.9 °F 53% 30.08 in 9.0 mi West 20.7 mph 31.1 mph 0.00 in   Overcast
8:51 PM 27.0 °F 13.2 °F 10.9 °F 51% 30.11 in 9.0 mi WSW 20.7 mph 32.2 mph 0.00 in   Overcast
9:51 PM 26.1 °F 15.0 °F 15.1 °F 63% 30.12 in 10.0 mi WSW 12.7 mph 32.2 mph 0.00 in   Overcast
10:51 PM 25.0 °F 14.2 °F 15.1 °F 66% 30.14 in 10.0 mi SW 11.5 mph - N/A   Overcast
11:48 PM 23.0 °F 11.1 °F 17.6 °F 80% 30.13 in 4.0 mi SSW 12.7 mph - 0.00 in Snow Light Snow
11:51 PM 23.0 °F 9.6 °F 17.1 °F 78% 30.17 in 4.0 mi SSW 16.1 mph - 0.00 in Snow Light Snow